Flag for U.S.A. Weather past 2 weeks in Cape Coral, Florida, U.S.A.

Now
80 °F

Passing clouds.


Feels Like: 85 °F
Forecast: 74 / 84 °F
Wind: 6 mph from Southwest

Location: Page Field

Current Time: Apr 19, 2015 at 9:40:10 PM

Latest Report: Apr 19, 2015 at 8:53 PM


Visibility: 10 mi

Pressure: 29.90 "Hg

Humidity: 81%

Dew point: 74 °F

Location of Cape CoralLocation

Historic Weather in Cape Coral — Graph

°F

Cape Coral temperature yesterday

Maximum temperature yesterday: 88 °F (at 2:53 PM)
Minimum temperature yesterday: 72 °F (at 5:53 AM)
Average temperature yesterday: 80 °F

Past Weeks' High & Low Weather Summary

 TemperatureHumidityPressure
High90 °F (Apr 8, 3:53 PM)100% (Apr 7, 7:53 AM)30.17 "Hg (Apr 7, 7:53 AM)
Low65 °F (Apr 5, 5:53 AM)33% (Apr 5, 2:53 PM)29.88 "Hg (Apr 19, 4:53 PM)
Average78 °F75%30.07 "Hg
* Reported Apr 4 7:53 PM — Apr 19 7:53 PM, Cape Coral, Weather by CustomWeather, © 2015

Note: Actual official high and low records may vary slightly from our data, if they occured in-between our weather recording intervals... More about our weather records

Advertising

Cape Coral weather history for previous 24 hours

 ConditionsComfort  
Time TempWeatherWind HumidityBarometerVisibility
7:53 PM
Sun, Apr 19
81 °FPartly sunny.9 mph77%29.90 "Hg10 mi
6:53 PM83 °FPartly sunny.10 mph70%29.89 "Hg10 mi
5:53 PM84 °FSunny.10 mph63%29.88 "Hg10 mi
4:53 PM86 °FSunny.14 mph57%29.88 "Hg10 mi
3:53 PM85 °FSunny.15 mph63%29.90 "Hg10 mi
2:53 PM88 °FSunny.15 mph57%29.91 "Hg10 mi
1:53 PM88 °FSunny.14 mph57%29.92 "Hg10 mi
12:53 PM88 °FSunny.12 mph55%29.93 "Hg10 mi
11:53 AM88 °FPassing clouds.9 mph50%29.96 "Hg10 mi
10:53 AM86 °FPassing clouds.13 mph59%29.95 "Hg10 mi
9:53 AM82 °FSunny.12 mph72%29.95 "Hg10 mi
8:53 AM79 °FSunny.8 mph74%29.96 "Hg10 mi
7:53 AM72 °FClear.No wind97%29.98 "Hg10 mi
6:53 AM71 °FClear.No wind96%29.96 "Hg10 mi
5:53 AM72 °FClear.3 mph93%29.94 "Hg10 mi
4:53 AM72 °FClear.No wind93%29.93 "Hg10 mi
3:53 AM72 °FClear.5 mph93%29.92 "Hg10 mi
2:53 AM73 °FClear.No wind94%29.94 "Hg10 mi
1:53 AM73 °FClear.No wind90%29.95 "Hg10 mi
12:53 AM74 °FClear.3 mph91%29.97 "Hg10 mi
11:53 PM
Sat, Apr 18
76 °FClear.No wind85%29.98 "Hg10 mi
10:53 PM78 °FClear.3 mph79%29.98 "Hg10 mi
9:53 PM79 °FClear.5 mph74%29.99 "Hg10 mi
Weather by CustomWeather, © 2015

See weather overviewHow to use our weather pages